North Padre Island, TX

12:17 PM CDT on March 23, 2017 (GMT -0500)
North Padre Island

Weather History for KOPM - February, 2013

Change the Weather History Date:

Saturday, February 16, 2013

  Actual Average (KHRL) Record (KHRL)
Temperature  
Mean Temperature 60 °F -  
Max Temperature 64 °F 73 °F 95 °F (1990)
Min Temperature 55 °F 52 °F 32 °F (1888)
Degree Days  
Heating Degree Days 6    
Growing Degree Days 10 (Base 50)    
Moisture  
Dew Point 41 °F    
Average Humidity 53    
Maximum Humidity 72    
Minimum Humidity 39    
Precipitation  
Precipitation 0.00 in - - ()
Sea Level Pressure  
Sea Level Pressure 30.35 in    
Wind  
Wind Speed 11 mph (NNE)    
Max Wind Speed 18 mph    
Max Gust Speed 31 mph    
Visibility 10 miles    
Events      
Averages and records for this station are not official NWS values.
T = Trace of Precipitation, MM = Missing Value Source: NWS Daily Summary

Daily Weather History Graph

Daily Weather History Graph

Search for Another Location

Airport or City:

Trip Planner

Search our weather history database for the weather conditions in past years. The results will help you decide how hot, cold, wet, or windy it might be!

Date:

Astronomy

Feb. 16, 2013 Rise Set
Actual Time 7:03 AM CST 6:20 PM CST
Civil Twilight 6:39 AM CST 6:44 PM CST
Nautical Twilight 6:12 AM CST 7:11 PM CST
Astronomical Twilight 5:45 AM CST 7:38 PM CST
Moon 10:57 AM CST (2/16) No Moon Set
Length of Visible Light 12h 05m
Length of Day
11h 17m
Waxing Crescent, 39% of the Moon is Illuminated
Feb 16
Waxing Crescent
Feb 17
First Quarter
Feb 25
Full
Mar 4
Last Quarter
Mar 11
New

Hourly Weather History & Observations

Time (CST) Temp. Dew Point Humidity Pressure Visibility Wind Dir Wind Speed Gust Speed Precip Events Conditions
12:15 AM 64.4 °F 48.2 °F 56% 30.25 in 10.0 mi North 10.4 mph - N/A   Overcast
12:55 AM 62.6 °F 51.8 °F 68% 30.27 in 10.0 mi North 12.7 mph 27.6 mph N/A   Overcast
1:15 AM 60.8 °F 51.8 °F 72% 30.27 in 10.0 mi North 13.8 mph 26.5 mph N/A   Overcast
1:35 AM 60.8 °F 50.0 °F 68% 30.28 in 10.0 mi North 16.1 mph 24.2 mph N/A   Overcast
1:55 AM 60.8 °F 50.0 °F 68% 30.27 in 10.0 mi North 17.3 mph 23.0 mph N/A   Overcast
2:15 AM 60.8 °F 50.0 °F 68% 30.28 in 10.0 mi North 18.4 mph 26.5 mph N/A   Overcast
2:35 AM 59.0 °F 50.0 °F 72% 30.28 in 10.0 mi North 18.4 mph 31.1 mph N/A   Overcast
2:55 AM 59.0 °F 48.2 °F 67% 30.30 in 10.0 mi North 18.4 mph 29.9 mph N/A   Overcast
3:35 AM 59.0 °F 48.2 °F 67% 30.30 in 10.0 mi North 17.3 mph 28.8 mph N/A   Overcast
3:55 AM 57.2 °F 46.4 °F 67% 30.32 in 10.0 mi North 16.1 mph 26.5 mph N/A   Overcast
4:15 AM 57.2 °F 46.4 °F 67% 30.32 in 10.0 mi North 16.1 mph 23.0 mph N/A   Overcast
4:35 AM 57.2 °F 48.2 °F 72% 30.33 in 10.0 mi North 13.8 mph 20.7 mph N/A   Overcast
5:35 AM 57.2 °F 48.2 °F 72% 30.35 in 10.0 mi North 9.2 mph 20.7 mph N/A   Overcast
5:55 AM 57.2 °F 46.4 °F 67% 30.36 in 10.0 mi North 11.5 mph 17.3 mph N/A   Mostly Cloudy
6:15 AM 55.4 °F 46.4 °F 72% 30.36 in 10.0 mi NNW 12.7 mph 19.6 mph N/A   Mostly Cloudy
6:35 AM 55.4 °F 44.6 °F 67% 30.37 in 10.0 mi NNW 13.8 mph - N/A   Mostly Cloudy
6:55 AM 55.4 °F 42.8 °F 63% 30.38 in 10.0 mi North 15.0 mph - N/A   Partly Cloudy
7:35 AM 55.4 °F 42.8 °F 63% 30.40 in 10.0 mi North 12.7 mph - N/A   Clear
7:55 AM 55.4 °F 41.0 °F 58% 30.40 in 10.0 mi North 8.1 mph 16.1 mph N/A   Clear
8:15 AM 57.2 °F 41.0 °F 55% 30.41 in 10.0 mi North 8.1 mph - N/A   Clear
8:35 AM 57.2 °F 41.0 °F 55% 30.41 in 10.0 mi North 11.5 mph 17.3 mph N/A   Clear
8:55 AM 57.2 °F 42.8 °F 59% 30.43 in 10.0 mi NNW 8.1 mph 16.1 mph N/A   Clear
9:15 AM 57.2 °F 42.8 °F 59% 30.43 in 10.0 mi North 11.5 mph 19.6 mph N/A   Clear
9:35 AM 57.2 °F 42.8 °F 59% 30.45 in 10.0 mi North 10.4 mph 17.3 mph N/A   Clear
9:55 AM 57.2 °F 41.0 °F 55% 30.45 in 10.0 mi North 9.2 mph 19.6 mph N/A   Clear
10:15 AM 57.2 °F 41.0 °F 55% 30.45 in 10.0 mi NNW 10.4 mph - N/A   Clear
10:35 AM 57.2 °F 41.0 °F 55% 30.46 in 10.0 mi North 8.1 mph 16.1 mph N/A   Clear
10:55 AM 57.2 °F 41.0 °F 55% 30.46 in 10.0 mi NNW 8.1 mph 16.1 mph N/A   Clear
11:15 AM 57.2 °F 41.0 °F 55% 30.45 in 10.0 mi North 8.1 mph 15.0 mph N/A   Clear
11:35 AM 57.2 °F 39.2 °F 51% 30.45 in 10.0 mi North 8.1 mph 17.3 mph N/A   Clear
11:55 AM 57.2 °F 39.2 °F 51% 30.45 in 10.0 mi North 10.4 mph - N/A   Clear
12:15 PM 57.2 °F 39.2 °F 51% 30.44 in 10.0 mi NNW 6.9 mph 13.8 mph N/A   Clear
12:35 PM 57.2 °F 39.2 °F 51% 30.43 in 10.0 mi North 10.4 mph - N/A   Clear
12:55 PM 57.2 °F 39.2 °F 51% 30.42 in 10.0 mi Variable 4.6 mph - N/A   Clear
1:15 PM 57.2 °F 39.2 °F 51% 30.40 in 10.0 mi North 8.1 mph - N/A   Clear
1:35 PM 57.2 °F 39.2 °F 51% 30.39 in 10.0 mi North 6.9 mph 13.8 mph N/A   Clear
1:55 PM 57.2 °F 39.2 °F 51% 30.38 in 10.0 mi North 5.8 mph - N/A   Clear
2:15 PM 57.2 °F 37.4 °F 48% 30.37 in 10.0 mi North 6.9 mph - N/A   Clear
2:35 PM 57.2 °F 37.4 °F 48% 30.37 in 10.0 mi NNW 5.8 mph - N/A   Clear
2:55 PM 59.0 °F 35.6 °F 42% 30.36 in 10.0 mi North 6.9 mph - N/A   Clear
3:15 PM 59.0 °F 35.6 °F 42% 30.35 in 10.0 mi North 6.9 mph - N/A   Clear
3:35 PM 59.0 °F 35.6 °F 42% 30.35 in 10.0 mi Variable 4.6 mph - N/A   Clear
3:55 PM 57.2 °F 33.8 °F 41% 30.34 in 10.0 mi Variable 5.8 mph - N/A   Clear
4:15 PM 57.2 °F 33.8 °F 41% 30.34 in 10.0 mi North 5.8 mph - N/A   Clear
4:35 PM 57.2 °F 35.6 °F 44% 30.33 in 10.0 mi NNE 5.8 mph - N/A   Clear
4:55 PM 57.2 °F 35.6 °F 44% 30.33 in 10.0 mi Variable 3.5 mph - N/A   Clear
5:15 PM 57.2 °F 35.6 °F 44% 30.33 in 10.0 mi North 6.9 mph - N/A   Clear
5:35 PM 57.2 °F 33.8 °F 41% 30.32 in 10.0 mi Variable 5.8 mph - N/A   Clear
5:55 PM 57.2 °F 33.8 °F 41% 30.32 in 10.0 mi NE 5.8 mph - N/A   Clear
6:15 PM 59.0 °F 35.6 °F 42% 30.32 in 10.0 mi Variable 4.6 mph - N/A   Clear
6:35 PM 59.0 °F 33.8 °F 39% 30.31 in 10.0 mi NE 6.9 mph - N/A   Clear
6:55 PM 59.0 °F 35.6 °F 42% 30.32 in 10.0 mi East 5.8 mph - N/A   Clear
7:15 PM 59.0 °F 35.6 °F 42% 30.32 in 10.0 mi East 5.8 mph - N/A   Clear
7:35 PM 59.0 °F 37.4 °F 45% 30.32 in 10.0 mi East 6.9 mph - N/A   Clear
7:55 PM 59.0 °F 35.6 °F 42% 30.32 in 10.0 mi ENE 6.9 mph - N/A   Clear
8:15 PM 59.0 °F 37.4 °F 45% 30.33 in 10.0 mi East 8.1 mph - N/A   Clear
8:35 PM 59.0 °F 35.6 °F 42% 30.33 in 10.0 mi East 8.1 mph - N/A   Clear
8:55 PM 59.0 °F 39.2 °F 48% 30.33 in 10.0 mi ESE 9.2 mph - N/A   Clear
9:15 PM 59.0 °F 37.4 °F 45% 30.33 in 10.0 mi ESE 9.2 mph - N/A   Clear
9:35 PM 59.0 °F 39.2 °F 48% 30.33 in 10.0 mi ESE 9.2 mph - N/A   Clear
9:55 PM 59.0 °F 39.2 °F 48% 30.32 in 10.0 mi East 9.2 mph - N/A   Clear
10:15 PM 60.8 °F 37.4 °F 42% 30.32 in 10.0 mi East 10.4 mph - N/A   Clear
10:35 PM 60.8 °F 39.2 °F 45% 30.32 in 10.0 mi East 10.4 mph - N/A   Clear
10:55 PM 60.8 °F 39.2 °F 45% 30.31 in 10.0 mi East 10.4 mph - N/A   Clear
11:15 PM 60.8 °F 39.2 °F 45% 30.31 in 10.0 mi ESE 11.5 mph - N/A   Clear
11:35 PM 60.8 °F 39.2 °F 45% 30.31 in 10.0 mi ESE 10.4 mph - N/A   Clear
11:55 PM 60.8 °F 39.2 °F 45% 30.30 in 10.0 mi SE 10.4 mph - N/A   Clear